Weather History for KBRD - September, 2013

Change the Weather History Date:

Monday, September 23, 2013

  Actual Average Record
Temperature  
Mean Temperature 64 °F -  
Max Temperature 73 °F 61 °F 84 °F (2007)
Min Temperature 55 °F 36 °F 23 °F (1976)
Degree Days  
Heating Degree Days 2    
Growing Degree Days 14 (Base 50)    
Moisture  
Dew Point 51 °F    
Average Humidity 64    
Maximum Humidity 77    
Minimum Humidity 47    
Precipitation  
Precipitation 0.00 in - - ()
Sea Level Pressure  
Sea Level Pressure 29.87 in    
Wind  
Wind Speed 12 mph (SSE)    
Max Wind Speed 21 mph    
Max Gust Speed 29 mph    
Visibility 10 miles    
Events      
Averages and records for this station are not official NWS values.
T = Trace of Precipitation, MM = Missing Value Source: NWS Daily Summary

Daily Weather History Graph

Daily Weather History Graph

Search for Another Location

Airport or City:

Trip Planner

Search our weather history database for the weather conditions in past years. The results will help you decide how hot, cold, wet, or windy it might be!

Date:

Astronomy

Sep. 23, 2013 Rise Set
Actual Time 7:05 AM CDT 7:11 PM CDT
Civil Twilight 6:35 AM CDT 7:41 PM CDT
Nautical Twilight 5:59 AM CDT 8:16 PM CDT
Astronomical Twilight 5:23 AM CDT 8:52 PM CDT
Moon 9:27 PM CDT (9/23) 11:41 AM CDT (9/23)
Length of Visible Light 13h 06m
Length of Day
12h 06m
Waning Gibbous, 81% of the Moon is Illuminated
Sep 23
Waning Gibbous
Sep 26
Last Quarter
Oct 4
New
Oct 11
First Quarter
Oct 18
Full

Hourly Weather History & Observations

Time (CDT) Temp. Dew Point Humidity Pressure Visibility Wind Dir Wind Speed Gust Speed Precip Events Conditions
12:53 AM 61.0 °F 52.0 °F 72% 29.85 in 10.0 mi SSE 10.4 mph 19.6 mph N/A   Clear
1:53 AM 60.1 °F 52.0 °F 75% 29.86 in 10.0 mi SSE 10.4 mph 18.4 mph N/A   Clear
2:53 AM 60.1 °F 51.1 °F 72% 29.86 in 10.0 mi SSE 15.0 mph 20.7 mph N/A   Clear
3:53 AM 59.0 °F 51.1 °F 75% 29.86 in 10.0 mi SSE 9.2 mph - N/A   Clear
4:53 AM 59.0 °F 50.0 °F 72% 29.86 in 10.0 mi South 11.5 mph 23.0 mph N/A   Clear
5:53 AM 57.9 °F 50.0 °F 75% 29.87 in 10.0 mi SSE 10.4 mph 19.6 mph N/A   Clear
6:53 AM 55.9 °F 48.9 °F 77% 29.88 in 10.0 mi SE 11.5 mph 19.6 mph N/A   Clear
7:53 AM 55.9 °F 48.9 °F 77% 29.89 in 10.0 mi SSE 11.5 mph - N/A   Clear
8:53 AM 59.0 °F 48.9 °F 69% 29.89 in 10.0 mi SSE 9.2 mph 18.4 mph N/A   Clear
9:53 AM 63.0 °F 50.0 °F 63% 29.88 in 10.0 mi South 15.0 mph 25.3 mph N/A   Clear
10:53 AM 66.0 °F 50.0 °F 56% 29.88 in 10.0 mi SSE 12.7 mph 23.0 mph N/A   Clear
11:53 AM 68.0 °F 50.0 °F 52% 29.89 in 10.0 mi South 18.4 mph 25.3 mph N/A   Clear
12:53 PM 70.0 °F 51.1 °F 51% 29.88 in 10.0 mi South 20.7 mph 28.8 mph N/A   Clear
1:53 PM 71.1 °F 51.1 °F 49% 29.86 in 10.0 mi SSE 15.0 mph 25.3 mph N/A   Clear
2:53 PM 72.0 °F 51.1 °F 48% 29.85 in 10.0 mi South 16.1 mph 24.2 mph N/A   Partly Cloudy
3:53 PM 72.0 °F 51.1 °F 48% 29.85 in 10.0 mi South 16.1 mph 24.2 mph N/A   Clear
4:53 PM 71.1 °F 50.0 °F 47% 29.84 in 10.0 mi SSE 17.3 mph 23.0 mph N/A   Clear
5:53 PM 69.1 °F 52.0 °F 54% 29.86 in 10.0 mi SSE 12.7 mph 19.6 mph N/A   Clear
6:53 PM 66.9 °F 52.0 °F 59% 29.87 in 10.0 mi SSE 8.1 mph - N/A   Clear
7:53 PM 63.0 °F 52.0 °F 67% 29.88 in 10.0 mi SE 4.6 mph - N/A   Clear
8:53 PM 62.1 °F 51.1 °F 67% 29.90 in 10.0 mi SE 9.2 mph - N/A   Clear
9:53 PM 62.1 °F 50.0 °F 65% 29.90 in 10.0 mi SE 9.2 mph 18.4 mph N/A   Clear
10:53 PM 61.0 °F 51.1 °F 70% 29.92 in 10.0 mi SSE 8.1 mph - N/A   Clear
11:53 PM 60.1 °F 50.0 °F 69% 29.91 in 10.0 mi SSE 9.2 mph - N/A   Clear